{"data":{"norad_id":51801,"epoch":"2026-09-20T01:25:41.304576Z","epoch_age_seconds":89898,"freshness":"FRESH","line1":"1 51801U 22017AK  26263.05950584 -.00026916  00000+0 -79303-3 0  9992","line2":"2 51801  53.1597 181.4361 0001413  47.5037 312.6084 15.34212790253475","mean_motion":15.3421279,"eccentricity":0.0001413,"inclination_deg":53.1597,"raan_deg":181.4361,"arg_perigee_deg":47.5037,"mean_anomaly_deg":312.6084,"bstar":-0.00079303,"rev_number":25347,"period_min":93.859209712363,"perigee_km":462.29303500293,"apogee_km":464.22641371724,"semimajor_km":6841.3967243601,"source":"CELESTRAK","updated_at":"2026-09-20T09:00:39.941746Z"}}